User: anonymous   Login
Location: ??????
(55.6500°N, 37.8000°E)
Time: 06:29:07
(UTC+00:00)
Language:

CZ-2D R/B - Orbit

View from above orbital plane
View from above orbital plane
View from above satellite
View from above satellite

Ground track
Ground track

The orbit data is extracted from the following two-line orbital elements,

1 37932U 11068C   24166.59853641  .00000186  00000-0  10276-3 0  9994
2 37932  98.7966 108.3851 0036238 209.6281 323.3158 14.22521152652303
Epoch (UTC): 14 June 2024 14:21:53
Eccentricity: 0.0036238
inclination: 98.7966°
perigee height: 791 km
apogee height: 843 km
right ascension of ascending node: 108.3851°
argument of perigee: 209.6281°
revolutions per day: 14.22521152
mean anomaly at epoch: 323.3158°
orbit number at epoch: 65230

The dashed part of the orbit path shows where the satellite is in the earth's shadow,  

DLR